User: anonymous   Login
Location: ??????
(55.6500°N, 37.8000°E)
Time: 07:29:59
(UTC+00:00)
Language:

Cosmos 921 Rocket - Orbit

View from above orbital plane
View from above orbital plane
View from above satellite
View from above satellite

Ground track
Ground track

The orbit data is extracted from the following two-line orbital elements,

1 10096U 77055B   24166.94204348  .00000908  00000-0  93954-4 0  9994
2 10096  75.8325 139.1956 0041388 177.5375 182.6029 14.90352739542250
Epoch (UTC): 14 June 2024 22:36:32
Eccentricity: 0.0041388
inclination: 75.8325°
perigee height: 568 km
apogee height: 626 km
right ascension of ascending node: 139.1956°
argument of perigee: 177.5375°
revolutions per day: 14.90352739
mean anomaly at epoch: 182.6029°
orbit number at epoch: 54225

The dashed part of the orbit path shows where the satellite is in the earth's shadow,  

DLR